,,,PA_Meas_PMT16A,,PR_Meas_QMR101_102,,RH_Meas_QMH101,,SR_Meas_QMS101,,TA_Meas_QMH101,,GenWind,,GenWind,
date,time,status,PA,status,PR,status,RH,status,SR,status,TA,status,DirAvg,status,SpdAvg,
2011-02-23, 00:00:04,VALID,1009.85,VALID,0,VALID,101.545,VALID,0,VALID,25.3683,VALID,335,VALID,0,
2011-02-23, 00:01:04,VALID,1009.81,VALID,0,VALID,101.56,VALID,0,VALID,25.3897,VALID,335,VALID,0,
2011-02-23, 00:02:04,VALID,1009.81,VALID,0,VALID,101.636,VALID,0,VALID,25.3293,VALID,335,VALID,0,
2011-02-23, 00:03:04,VALID,1009.75,VALID,0,VALID,101.697,VALID,0,VALID,25.3293,VALID,335,VALID,0,
2011-02-23, 00:04:04,VALID,1009.74,VALID,0,VALID,101.743,VALID,0,VALID,25.3293,VALID,335,VALID,0,
2011-02-23, 00:05:04,VALID,1009.71,VALID,0,VALID,101.697,VALID,0,VALID,25.3312,VALID,335,VALID,0,
2011-02-23, 00:06:04,VALID,1009.7,VALID,0,VALID,101.773,VALID,0,VALID,25.3312,VALID,335,VALID,0,
2011-02-23, 00:07:04,VALID,1009.72,VALID,0,VALID,101.804,VALID,0,VALID,25.3098,VALID,335,VALID,0,
2011-02-23, 00:08:04,VALID,1009.72,VALID,0,VALID,101.865,VALID,0,VALID,25.3117,VALID,335,VALID,0,
2011-02-23, 00:09:04,VALID,1009.75,VALID,0,VALID,101.773,VALID,0,VALID,25.3098,VALID,335,VALID,0,
2011-02-23, 00:10:04,VALID,1009.77,VALID,0,VALID,101.842,VALID,0,VALID,25.3117,VALID,335,VALID,0,
2011-02-23, 00:11:04,VALID,1009.77,VALID,0,VALID,101.903,VALID,0.105969,VALID,25.2708,VALID,335,VALID,0,
2011-02-23, 00:12:04,VALID,1009.75,VALID,0,VALID,101.933,VALID,0,VALID,25.2513,VALID,335,VALID,0,
2011-02-23, 00:13:04,VALID,1009.77,VALID,0,VALID,101.972,VALID,0,VALID,25.2532,VALID,335,VALID,0,
2011-02-23, 00:14:04,VALID,1009.75,VALID,0,VALID,101.949,VALID,0.105969,VALID,25.2532,VALID,87,VALID,0,
2011-02-23, 00:15:04,VALID,1009.72,VALID,0,VALID,101.972,VALID,0.105969,VALID,25.2318,VALID,87,VALID,0,
2011-02-23, 00:16:04,VALID,1009.68,VALID,0,VALID,102.01,VALID,0,VALID,25.2318,VALID,87,VALID,0,
2011-02-23, 00:17:04,VALID,1009.68,VALID,0,VALID,102.01,VALID,0.105969,VALID,25.1928,VALID,87,VALID,0,
2011-02-23, 00:18:04,VALID,1009.66,VALID,0,VALID,102.048,VALID,0.105969,VALID,25.1928,VALID,87,VALID,0,
2011-02-23, 00:19:04,VALID,1009.67,VALID,0,VALID,102.109,VALID,0.105969,VALID,25.1928,VALID,87,VALID,0,
2011-02-23, 00:20:04,VALID,1009.63,VALID,0,VALID,102.155,VALID,0,VALID,25.1733,VALID,87,VALID,0,
2011-02-23, 00:21:04,VALID,1009.61,VALID,0,VALID,102.2,VALID,0.105969,VALID,25.1733,VALID,87,VALID,0,
2011-02-23, 00:22:04,VALID,1009.6,VALID,0,VALID,102.238,VALID,0,VALID,25.1733,VALID,87,VALID,0,
2011-02-23, 00:23:04,VALID,1009.61,VALID,0,VALID,102.193,VALID,0.105969,VALID,25.1733,VALID,87,VALID,0,
2011-02-23, 00:24:04,VALID,1009.64,VALID,0,VALID,102.238,VALID,0.105969,VALID,25.1928,VALID,87,VALID,0,
2011-02-23, 00:25:04,VALID,1009.66,VALID,0,VALID,102.261,VALID,0,VALID,25.1928,VALID,83,VALID,0,
2011-02-23, 00:26:04,VALID,1009.65,VALID,0,VALID,102.216,VALID,0.105969,VALID,25.1733,VALID,83,VALID,0,
2011-02-23, 00:27:04,VALID,1009.66,VALID,0,VALID,102.261,VALID,0,VALID,25.1538,VALID,83,VALID,0,
2011-02-23, 00:28:04,VALID,1009.63,VALID,0,VALID,102.322,VALID,0,VALID,25.1343,VALID,83,VALID,0,
2011-02-23, 00:29:04,VALID,1009.64,VALID,0,VALID,102.307,VALID,0,VALID,25.1343,VALID,83,VALID,0,
2011-02-23, 00:30:04,VALID,1009.62,VALID,0,VALID,102.246,VALID,0,VALID,25.1343,VALID,83,VALID,0,
2011-02-23, 00:31:04,VALID,1009.61,VALID,0,VALID,102.208,VALID,0.105969,VALID,25.1148,VALID,83,VALID,0,
2011-02-23, 00:32:04,VALID,1009.57,VALID,0,VALID,102.208,VALID,0.105969,VALID,25.1148,VALID,83,VALID,0,
2011-02-23, 00:33:04,VALID,1009.58,VALID,0,VALID,102.254,VALID,0.105969,VALID,25.1148,VALID,83,VALID,0,
2011-02-23, 00:34:04,VALID,1009.55,VALID,0,VALID,102.307,VALID,0.105969,VALID,25.1129,VALID,83,VALID,0,
2011-02-23, 00:35:04,VALID,1009.54,VALID,0,VALID,102.261,VALID,0.105969,VALID,25.1148,VALID,83,VALID,0,
2011-02-23, 00:36:04,VALID,1009.53,VALID,0,VALID,102.2,VALID,0.105969,VALID,25.1343,VALID,83,VALID,0,
2011-02-23, 00:37:04,VALID,1009.52,VALID,0,VALID,102.155,VALID,0.105969,VALID,25.1343,VALID,83,VALID,0,
2011-02-23, 00:38:05,VALID,1009.5,VALID,0,VALID,102.086,VALID,0.105969,VALID,25.1343,VALID,83,VALID,0,
2011-02-23, 00:39:05,VALID,1009.5,VALID,0,VALID,102.048,VALID,0.105969,VALID,25.1343,VALID,83,VALID,0,
2011-02-23, 00:40:05,VALID,1009.47,VALID,0,VALID,102.025,VALID,0,VALID,25.1148,VALID,83,VALID,0,
2011-02-23, 00:41:05,VALID,1009.47,VALID,0,VALID,101.979,VALID,0,VALID,25.0954,VALID,83,VALID,0,
2011-02-23, 00:42:05,VALID,1009.43,VALID,0,VALID,101.964,VALID,0.105969,VALID,25.1148,VALID,83,VALID,0,
2011-02-23, 00:43:05,VALID,1009.46,VALID,0,VALID,102.04,VALID,0.105969,VALID,25.0934,VALID,83,VALID,0,
2011-02-23, 00:44:05,VALID,1009.4,VALID,0,VALID,102.078,VALID,0,VALID,25.0759,VALID,83,VALID,0,
2011-02-23, 00:45:05,VALID,1009.41,VALID,0,VALID,102.055,VALID,0.105969,VALID,25.0954,VALID,83,VALID,0,
2011-02-23, 00:46:05,VALID,1009.38,VALID,0,VALID,102.071,VALID,0,VALID,25.0973,VALID,83,VALID,0,
2011-02-23, 00:47:05,VALID,1009.36,VALID,0,VALID,102.109,VALID,0.105969,VALID,25.0954,VALID,83,VALID,0,
2011-02-23, 00:48:05,VALID,1009.36,VALID,0,VALID,102.124,VALID,0.105969,VALID,25.0759,VALID,83,VALID,0,
2011-02-23, 00:49:05,VALID,1009.35,VALID,0,VALID,102.132,VALID,0.105969,VALID,25.0564,VALID,83,VALID,0,
2011-02-23, 00:50:05,VALID,1009.33,VALID,0,VALID,102.162,VALID,0,VALID,25.0564,VALID,83,VALID,0,
2011-02-23, 00:51:05,VALID,1009.3,VALID,0,VALID,102.162,VALID,0,VALID,25.0564,VALID,83,VALID,0,
2011-02-23, 00:52:05,VALID,1009.26,VALID,0,VALID,102.155,VALID,0,VALID,25.0564,VALID,83,VALID,0.219531,
2011-02-23, 00:53:05,VALID,1009.25,VALID,0,VALID,102.17,VALID,0.105969,VALID,25.0564,VALID,83,VALID,0.384375,
2011-02-23, 00:54:05,VALID,1009.26,VALID,0,VALID,102.162,VALID,0.105969,VALID,25.0564,VALID,83,VALID,0.1875,
2011-02-23, 00:55:05,VALID,1009.26,VALID,0,VALID,102.132,VALID,0.105969,VALID,25.0564,VALID,83,VALID,0,
2011-02-23, 00:56:05,VALID,1009.26,VALID,0,VALID,102.139,VALID,0.105969,VALID,25.035,VALID,83,VALID,0.0898438,
2011-02-23, 00:57:05,VALID,1009.28,VALID,0,VALID,102.17,VALID,0.105969,VALID,25.0369,VALID,83,VALID,0,
2011-02-23, 00:58:05,VALID,1009.28,VALID,0,VALID,102.193,VALID,0.105969,VALID,25.0369,VALID,83,VALID,0,
2011-02-23, 00:59:05,VALID,1009.27,VALID,0,VALID,102.185,VALID,0.105969,VALID,25.0174,VALID,83,VALID,0,
2011-02-23, 01:00:05,VALID,1009.25,VALID,0,VALID,102.269,VALID,0.105969,VALID,25.0174,VALID,83,VALID,0,
2011-02-23, 01:01:05,VALID,1009.23,VALID,0,VALID,102.284,VALID,0.105969,VALID,24.9979,VALID,83,VALID,0,
2011-02-23, 01:02:05,VALID,1009.18,VALID,0,VALID,102.284,VALID,0.105969,VALID,24.9784,VALID,83,VALID,0,
2011-02-23, 01:03:05,VALID,1009.17,VALID,0,VALID,102.406,VALID,0.105969,VALID,24.9784,VALID,83,VALID,0,
2011-02-23, 01:04:05,VALID,1009.15,VALID,0,VALID,102.513,VALID,0,VALID,24.9589,VALID,83,VALID,0,
2011-02-23, 01:05:05,VALID,1009.15,VALID,0,VALID,102.582,VALID,0,VALID,24.9589,VALID,83,VALID,0,
2011-02-23, 01:06:05,VALID,1009.16,VALID,0,VALID,102.65,VALID,0.105969,VALID,24.9608,VALID,83,VALID,0,
2011-02-23, 01:07:05,VALID,1009.15,VALID,0,VALID,102.666,VALID,0.105969,VALID,24.9589,VALID,83,VALID,0,
2011-02-23, 01:08:05,VALID,1009.12,VALID,0,VALID,102.635,VALID,0.105969,VALID,24.9394,VALID,83,VALID,0,
2011-02-23, 01:09:05,VALID,1009.13,VALID,0,VALID,102.658,VALID,0.105969,VALID,24.9199,VALID,83,VALID,0,
2011-02-23, 01:10:05,VALID,1009.12,VALID,0,VALID,102.65,VALID,0.105969,VALID,24.9199,VALID,83,VALID,0,
2011-02-23, 01:11:05,VALID,1009.12,VALID,0,VALID,102.658,VALID,0.105969,VALID,24.9004,VALID,83,VALID,0,
2011-02-23, 01:12:05,VALID,1009.11,VALID,0,VALID,102.696,VALID,0.105969,VALID,24.9004,VALID,83,VALID,0,
2011-02-23, 01:13:05,VALID,1009.12,VALID,0,VALID,102.757,VALID,0,VALID,24.8809,VALID,83,VALID,0,
2011-02-23, 01:14:05,VALID,1009.14,VALID,0,VALID,102.826,VALID,0,VALID,24.8615,VALID,83,VALID,0,
2011-02-23, 01:15:05,VALID,1009.15,VALID,0,VALID,102.902,VALID,0.105969,VALID,24.842,VALID,83,VALID,0.543359,
2011-02-23, 01:16:05,VALID,1009.17,VALID,0,VALID,102.993,VALID,0,VALID,24.803,VALID,83,VALID,0.369531,
2011-02-23, 01:17:05,VALID,1009.14,VALID,0,VALID,103.085,VALID,0.105969,VALID,24.7835,VALID,83,VALID,0,
2011-02-23, 01:18:05,VALID,1009.15,VALID,0,VALID,103.192,VALID,0.105969,VALID,24.7835,VALID,83,VALID,0.003125,
2011-02-23, 01:19:05,VALID,1009.11,VALID,0,VALID,103.23,VALID,0.105969,VALID,24.7835,VALID,83,VALID,0,
2011-02-23, 01:20:05,VALID,1009.12,VALID,0,VALID,103.245,VALID,0.105969,VALID,24.7835,VALID,83,VALID,0,
2011-02-23, 01:21:05,VALID,1009.11,VALID,0,VALID,103.245,VALID,0.105969,VALID,24.764,VALID,83,VALID,0,
2011-02-23, 01:22:05,VALID,1009.09,VALID,0,VALID,103.245,VALID,0.105969,VALID,24.764,VALID,83,VALID,0,
2011-02-23, 01:23:05,VALID,1009.05,VALID,0,VALID,103.283,VALID,0.105969,VALID,24.7445,VALID,83,VALID,0,
2011-02-23, 01:24:05,VALID,1009.07,VALID,0,VALID,103.337,VALID,0.105969,VALID,24.7445,VALID,83,VALID,0,
2011-02-23, 01:25:05,VALID,1009.03,VALID,0,VALID,103.344,VALID,0.105969,VALID,24.725,VALID,83,VALID,0.166406,
2011-02-23, 01:26:05,VALID,1009.02,VALID,0,VALID,103.398,VALID,0,VALID,24.7055,VALID,83,VALID,0.178516,
2011-02-23, 01:27:05,VALID,1008.99,VALID,0,VALID,103.451,VALID,0,VALID,24.7074,VALID,83,VALID,0.160938,
2011-02-23, 01:28:05,VALID,1008.97,VALID,0,VALID,103.481,VALID,0,VALID,24.686,VALID,83,VALID,0,
2011-02-23, 01:29:05,VALID,1008.97,VALID,0,VALID,103.512,VALID,0,VALID,24.6471,VALID,83,VALID,0,
2011-02-23, 01:30:05,VALID,1008.98,VALID,0,VALID,103.535,VALID,0.105969,VALID,24.6471,VALID,83,VALID,0,
2011-02-23, 01:31:05,VALID,1008.92,VALID,0,VALID,103.596,VALID,0.105969,VALID,24.6666,VALID,83,VALID,0,
2011-02-23, 01:32:05,VALID,1008.92,VALID,0,VALID,103.634,VALID,0,VALID,24.6471,VALID,83,VALID,0,
2011-02-23, 01:33:05,VALID,1008.93,VALID,0,VALID,103.664,VALID,0.105969,VALID,24.6684,VALID,83,VALID,0,
2011-02-23, 01:34:05,VALID,1008.93,VALID,0,VALID,103.672,VALID,0,VALID,24.6471,VALID,83,VALID,0,
2011-02-23, 01:35:05,VALID,1008.91,VALID,0,VALID,103.703,VALID,0.105969,VALID,24.6471,VALID,83,VALID,0,
2011-02-23, 01:36:05,VALID,1008.91,VALID,0,VALID,103.741,VALID,0.105969,VALID,24.6276,VALID,83,VALID,0,
2011-02-23, 01:37:05,VALID,1008.88,VALID,0,VALID,103.764,VALID,0.105969,VALID,24.6471,VALID,83,VALID,0,
2011-02-23, 01:38:05,VALID,1008.88,VALID,0,VALID,103.779,VALID,0,VALID,24.6276,VALID,83,VALID,0,
2011-02-23, 01:39:05,VALID,1008.86,VALID,0,VALID,103.794,VALID,0.105969,VALID,24.6471,VALID,83,VALID,0,
2011-02-23, 01:40:05,VALID,1008.84,VALID,0,VALID,103.817,VALID,0,VALID,24.6276,VALID,83,VALID,0,
2011-02-23, 01:41:05,VALID,1008.81,VALID,0,VALID,103.794,VALID,0.105969,VALID,24.6471,VALID,83,VALID,0,
2011-02-23, 01:42:05,VALID,1008.81,VALID,0,VALID,103.84,VALID,0.105969,VALID,24.6471,VALID,83,VALID,0,
2011-02-23, 01:43:05,VALID,1008.81,VALID,0,VALID,103.863,VALID,0.105969,VALID,24.6666,VALID,83,VALID,0,
2011-02-23, 01:44:05,VALID,1008.79,VALID,0,VALID,103.878,VALID,0,VALID,24.6666,VALID,83,VALID,0,
2011-02-23, 01:45:05,VALID,1008.79,VALID,0,VALID,103.878,VALID,0.105969,VALID,24.686,VALID,83,VALID,0,
2011-02-23, 01:46:05,VALID,1008.77,VALID,0,VALID,103.878,VALID,0,VALID,24.6666,VALID,83,VALID,0,
2011-02-23, 01:47:05,VALID,1008.75,VALID,0,VALID,103.878,VALID,0,VALID,24.686,VALID,83,VALID,0,
2011-02-23, 01:48:05,VALID,1008.76,VALID,0,VALID,103.848,VALID,0,VALID,24.6666,VALID,83,VALID,0,
2011-02-23, 01:49:05,VALID,1008.71,VALID,0,VALID,103.855,VALID,0.105969,VALID,24.7055,VALID,83,VALID,0,
2011-02-23, 01:50:05,VALID,1008.69,VALID,0,VALID,103.84,VALID,0,VALID,24.686,VALID,83,VALID,0,
2011-02-23, 01:51:05,VALID,1008.69,VALID,0,VALID,103.809,VALID,0,VALID,24.686,VALID,83,VALID,0,
2011-02-23, 01:52:05,VALID,1008.68,VALID,0,VALID,103.817,VALID,0,VALID,24.686,VALID,83,VALID,0,
2011-02-23, 01:53:05,VALID,1008.65,VALID,0,VALID,103.84,VALID,0,VALID,24.6879,VALID,83,VALID,0,
2011-02-23, 01:54:05,VALID,1008.63,VALID,0,VALID,103.84,VALID,0,VALID,24.7074,VALID,83,VALID,0,
2011-02-23, 01:55:05,VALID,1008.63,VALID,0,VALID,103.87,VALID,0,VALID,24.7055,VALID,83,VALID,0,
2011-02-23, 01:56:05,VALID,1008.59,VALID,0,VALID,103.87,VALID,0.105969,VALID,24.725,VALID,83,VALID,0.139062,
2011-02-23, 01:57:05,VALID,1008.6,VALID,0,VALID,103.878,VALID,0.105969,VALID,24.7445,VALID,83,VALID,0.305859,
2011-02-23, 01:58:05,VALID,1008.56,VALID,0,VALID,103.863,VALID,0,VALID,24.725,VALID,83,VALID,0.326562,
2011-02-23, 01:59:05,VALID,1008.55,VALID,0,VALID,103.809,VALID,0.105969,VALID,24.7269,VALID,83,VALID,0.214844,
2011-02-23, 02:00:05,VALID,1008.54,VALID,0,VALID,103.817,VALID,0,VALID,24.686,VALID,83,VALID,0.0890625,
2011-02-23, 02:01:05,VALID,1008.52,VALID,0,VALID,103.817,VALID,0,VALID,24.7055,VALID,83,VALID,0,
2011-02-23, 02:02:05,VALID,1008.5,VALID,0,VALID,103.809,VALID,0,VALID,24.7269,VALID,83,VALID,0,
2011-02-23, 02:03:05,VALID,1008.47,VALID,0,VALID,103.825,VALID,0.105969,VALID,24.7055,VALID,83,VALID,0.264062,
2011-02-23, 02:04:05,VALID,1008.46,VALID,0,VALID,103.809,VALID,0.105969,VALID,24.7074,VALID,83,VALID,0,
2011-02-23, 02:05:05,VALID,1008.47,VALID,0,VALID,103.825,VALID,0.105969,VALID,24.7055,VALID,83,VALID,0,
2011-02-23, 02:06:05,VALID,1008.45,VALID,0,VALID,103.802,VALID,0.105969,VALID,24.7055,VALID,83,VALID,0.328125,
2011-02-23, 02:07:05,VALID,1008.48,VALID,0,VALID,103.817,VALID,0.105969,VALID,24.686,VALID,83,VALID,0,
2011-02-23, 02:08:05,VALID,1008.46,VALID,0,VALID,103.817,VALID,0,VALID,24.7055,VALID,83,VALID,0,
2011-02-23, 02:09:05,VALID,1008.47,VALID,0,VALID,103.787,VALID,0.105969,VALID,24.686,VALID,83,VALID,0.0949219,
2011-02-23, 02:10:05,VALID,1008.45,VALID,0,VALID,103.794,VALID,0.105969,VALID,24.7055,VALID,83,VALID,0,
2011-02-23, 02:11:05,VALID,1008.44,VALID,0,VALID,103.817,VALID,0.105969,VALID,24.7055,VALID,83,VALID,0,
2011-02-23, 02:12:05,VALID,1008.4,VALID,0,VALID,103.787,VALID,0,VALID,24.686,VALID,83,VALID,0,
2011-02-23, 02:13:05,VALID,1008.36,VALID,0,VALID,103.787,VALID,0,VALID,24.7055,VALID,83,VALID,0,
2011-02-23, 02:14:05,VALID,1008.34,VALID,0,VALID,103.748,VALID,0.105969,VALID,24.7055,VALID,83,VALID,0,
2011-02-23, 02:15:05,VALID,1008.34,VALID,0,VALID,103.726,VALID,0,VALID,24.6879,VALID,83,VALID,0,
2011-02-23, 02:16:05,VALID,1008.38,VALID,0,VALID,103.71,VALID,0.105969,VALID,24.6666,VALID,83,VALID,0,
2011-02-23, 02:17:05,VALID,1008.39,VALID,0,VALID,103.687,VALID,0,VALID,24.6684,VALID,83,VALID,0,
2011-02-23, 02:18:05,VALID,1008.4,VALID,0,VALID,103.695,VALID,0.105969,VALID,24.6471,VALID,83,VALID,0,
2011-02-23, 02:19:05,VALID,1008.4,VALID,0,VALID,103.718,VALID,0,VALID,24.6684,VALID,83,VALID,0,
2011-02-23, 02:20:05,VALID,1008.41,VALID,0,VALID,103.748,VALID,0,VALID,24.6471,VALID,83,VALID,0,
2011-02-23, 02:21:05,VALID,1008.4,VALID,0,VALID,103.741,VALID,0.105969,VALID,24.6684,VALID,83,VALID,0,
2011-02-23, 02:22:05,VALID,1008.42,VALID,0,VALID,103.794,VALID,0,VALID,24.6471,VALID,83,VALID,0,
2011-02-23, 02:23:05,VALID,1008.4,VALID,0,VALID,103.787,VALID,0.105969,VALID,24.6471,VALID,83,VALID,0,
2011-02-23, 02:24:05,VALID,1008.41,VALID,0,VALID,103.802,VALID,0,VALID,24.6276,VALID,83,VALID,0,
2011-02-23, 02:25:05,VALID,1008.4,VALID,0,VALID,103.794,VALID,0,VALID,24.6276,VALID,83,VALID,0,
2011-02-23, 02:26:05,VALID,1008.41,VALID,0,VALID,103.802,VALID,0,VALID,24.6081,VALID,83,VALID,0,
2011-02-23, 02:27:05,VALID,1008.38,VALID,0,VALID,103.817,VALID,0,VALID,24.6294,VALID,83,VALID,0,
2011-02-23, 02:28:05,VALID,1008.38,VALID,0,VALID,103.825,VALID,0,VALID,24.6099,VALID,83,VALID,0,
2011-02-23, 02:29:05,VALID,1008.37,VALID,0,VALID,103.832,VALID,0,VALID,24.6099,VALID,83,VALID,0,
2011-02-23, 02:30:05,VALID,1008.37,VALID,0,VALID,103.832,VALID,0,VALID,24.5691,VALID,83,VALID,0,
2011-02-23, 02:31:05,VALID,1008.39,VALID,0,VALID,103.832,VALID,0,VALID,24.571,VALID,83,VALID,0.255078,
2011-02-23, 02:32:05,VALID,1008.39,VALID,0,VALID,103.855,VALID,0,VALID,24.5496,VALID,83,VALID,0.192578,
2011-02-23, 02:33:05,VALID,1008.35,VALID,0,VALID,103.878,VALID,0,VALID,24.5691,VALID,83,VALID,0.227734,
2011-02-23, 02:34:05,VALID,1008.36,VALID,0,VALID,103.901,VALID,0.105969,VALID,24.5496,VALID,83,VALID,0.251172,
2011-02-23, 02:35:05,VALID,1008.35,VALID,0,VALID,103.931,VALID,0,VALID,24.5691,VALID,83,VALID,0.151172,
2011-02-23, 02:36:05,VALID,1008.37,VALID,0,VALID,103.947,VALID,0,VALID,24.5691,VALID,83,VALID,0.132422,
2011-02-23, 02:37:05,VALID,1008.38,VALID,0,VALID,103.985,VALID,0.105969,VALID,24.5496,VALID,83,VALID,0,
2011-02-23, 02:38:05,VALID,1008.39,VALID,0,VALID,103.977,VALID,0,VALID,24.5301,VALID,83,VALID,0,
2011-02-23, 02:39:05,VALID,1008.39,VALID,0,VALID,104,VALID,0,VALID,24.5301,VALID,83,VALID,0,
2011-02-23, 02:40:05,VALID,1008.4,VALID,0,VALID,104,VALID,0,VALID,24.5301,VALID,83,VALID,0,
2011-02-23, 02:41:05,VALID,1008.43,VALID,0,VALID,104,VALID,0,VALID,24.5301,VALID,83,VALID,0,
2011-02-23, 02:42:05,VALID,1008.43,VALID,0,VALID,104,VALID,0.105969,VALID,24.5301,VALID,83,VALID,0,
2011-02-23, 02:43:05,VALID,1008.46,VALID,0,VALID,104,VALID,0,VALID,24.5515,VALID,83,VALID,0,
2011-02-23, 02:44:05,VALID,1008.47,VALID,0,VALID,104,VALID,0,VALID,24.5301,VALID,83,VALID,0,
2011-02-23, 02:45:05,VALID,1008.5,VALID,0,VALID,104,VALID,0,VALID,24.532,VALID,83,VALID,0,
2011-02-23, 02:46:05,VALID,1008.51,VALID,0,VALID,104,VALID,0,VALID,24.5301,VALID,83,VALID,0,
2011-02-23, 02:47:05,VALID,1008.49,VALID,0,VALID,104,VALID,0,VALID,24.5301,VALID,83,VALID,0,
2011-02-23, 02:48:05,VALID,1008.49,VALID,0,VALID,104,VALID,0.105969,VALID,24.5515,VALID,83,VALID,0,
2011-02-23, 02:49:05,VALID,1008.47,VALID,0,VALID,104,VALID,0.105969,VALID,24.5496,VALID,83,VALID,0,
2011-02-23, 02:50:05,VALID,1008.45,VALID,0,VALID,104,VALID,0,VALID,24.5496,VALID,83,VALID,0,
2011-02-23, 02:51:05,VALID,1008.46,VALID,0,VALID,104,VALID,0,VALID,24.5691,VALID,83,VALID,0,
2011-02-23, 02:52:05,VALID,1008.43,VALID,0,VALID,104,VALID,0.105969,VALID,24.5905,VALID,83,VALID,0,
2011-02-23, 02:53:05,VALID,1008.4,VALID,0,VALID,104,VALID,0,VALID,24.5886,VALID,83,VALID,0,
2011-02-23, 02:54:05,VALID,1008.41,VALID,0,VALID,104,VALID,0,VALID,24.6099,VALID,83,VALID,0,
2011-02-23, 02:55:05,VALID,1008.36,VALID,0,VALID,104,VALID,0,VALID,24.6081,VALID,83,VALID,0,
2011-02-23, 02:56:05,VALID,1008.34,VALID,0,VALID,104,VALID,0,VALID,24.6294,VALID,83,VALID,0,
2011-02-23, 02:57:05,VALID,1008.36,VALID,0,VALID,104,VALID,0,VALID,24.6081,VALID,83,VALID,0,
2011-02-23, 02:58:05,VALID,1008.34,VALID,0,VALID,104,VALID,0.105969,VALID,24.6081,VALID,83,VALID,0,
2011-02-23, 02:59:05,VALID,1008.33,VALID,0,VALID,104,VALID,0.105969,VALID,24.6081,VALID,83,VALID,0,
2011-02-23, 03:00:05,VALID,1008.32,VALID,0,VALID,104,VALID,0,VALID,24.6081,VALID,83,VALID,0,
2011-02-23, 03:01:05,VALID,1008.31,VALID,0,VALID,104,VALID,0.105969,VALID,24.6081,VALID,83,VALID,0,
2011-02-23, 03:02:05,VALID,1008.33,VALID,0,VALID,104,VALID,0,VALID,24.6294,VALID,83,VALID,0,
2011-02-23, 03:03:05,VALID,1008.36,VALID,0,VALID,104,VALID,0,VALID,24.5905,VALID,83,VALID,0,
2011-02-23, 03:04:05,VALID,1008.34,VALID,0,VALID,104,VALID,0,VALID,24.571,VALID,83,VALID,0,
2011-02-23, 03:05:05,VALID,1008.34,VALID,0,VALID,104,VALID,0,VALID,24.5496,VALID,83,VALID,0,
2011-02-23, 03:06:05,VALID,1008.3,VALID,0,VALID,103.985,VALID,0.105969,VALID,24.5106,VALID,83,VALID,0,
2011-02-23, 03:07:05,VALID,1008.3,VALID,0,VALID,103.947,VALID,0,VALID,24.5125,VALID,83,VALID,0,
2011-02-23, 03:08:05,VALID,1008.28,VALID,0,VALID,103.939,VALID,0,VALID,24.4522,VALID,83,VALID,0,
2011-02-23, 03:09:05,VALID,1008.23,VALID,0,VALID,103.947,VALID,0.105969,VALID,24.4522,VALID,83,VALID,0,
2011-02-23, 03:10:05,VALID,1008.26,VALID,0,VALID,103.985,VALID,0.105969,VALID,24.4327,VALID,83,VALID,0,
2011-02-23, 03:11:05,VALID,1008.25,VALID,0,VALID,103.97,VALID,0,VALID,24.4345,VALID,83,VALID,0,
2011-02-23, 03:12:05,VALID,1008.24,VALID,0,VALID,104,VALID,0,VALID,24.3937,VALID,83,VALID,0,
2011-02-23, 03:13:05,VALID,1008.23,VALID,0,VALID,104,VALID,0,VALID,24.415,VALID,83,VALID,0,
2011-02-23, 03:14:05,VALID,1008.25,VALID,0,VALID,104,VALID,0.105969,VALID,24.3742,VALID,83,VALID,0,
2011-02-23, 03:15:05,VALID,1008.25,VALID,0,VALID,104,VALID,0,VALID,24.3547,VALID,83,VALID,0,
2011-02-23, 03:16:05,VALID,1008.26,VALID,0,VALID,104,VALID,0,VALID,24.3761,VALID,83,VALID,0,
2011-02-23, 03:17:05,VALID,1008.26,VALID,0,VALID,104,VALID,0,VALID,24.3352,VALID,83,VALID,0,
2011-02-23, 03:18:05,VALID,1008.28,VALID,0,VALID,104,VALID,0,VALID,24.3352,VALID,83,VALID,0,
2011-02-23, 03:19:05,VALID,1008.28,VALID,0,VALID,104,VALID,0,VALID,24.3158,VALID,83,VALID,0,
2011-02-23, 03:20:04,VALID,1008.32,VALID,0,VALID,104,VALID,0,VALID,24.3158,VALID,83,VALID,0,
2011-02-23, 03:21:04,VALID,1008.32,VALID,0,VALID,104,VALID,0,VALID,24.3158,VALID,83,VALID,0,
2011-02-23, 03:22:04,VALID,1008.33,VALID,0,VALID,104,VALID,0,VALID,24.3158,VALID,83,VALID,0,
2011-02-23, 03:23:04,VALID,1008.32,VALID,0,VALID,104,VALID,0.105969,VALID,24.2963,VALID,83,VALID,0,
2011-02-23, 03:24:04,VALID,1008.36,VALID,0,VALID,104,VALID,0,VALID,24.2963,VALID,83,VALID,0,
2011-02-23, 03:25:04,VALID,1008.36,VALID,0,VALID,104,VALID,0.105969,VALID,24.2768,VALID,83,VALID,0,
2011-02-23, 03:26:04,VALID,1008.35,VALID,0,VALID,104,VALID,0,VALID,24.2768,VALID,83,VALID,0,
2011-02-23, 03:27:04,VALID,1008.35,VALID,0,VALID,104,VALID,0.105969,VALID,24.2573,VALID,83,VALID,0,
2011-02-23, 03:28:04,VALID,1008.37,VALID,0,VALID,104,VALID,0,VALID,24.2768,VALID,83,VALID,0,
2011-02-23, 03:29:04,VALID,1008.33,VALID,0,VALID,104,VALID,0.105969,VALID,24.2768,VALID,83,VALID,0,
2011-02-23, 03:30:04,VALID,1008.36,VALID,0,VALID,104,VALID,0.105969,VALID,24.236,VALID,83,VALID,0,
2011-02-23, 03:31:04,VALID,1008.36,VALID,0,VALID,104,VALID,0.105969,VALID,24.2573,VALID,83,VALID,0,
2011-02-23, 03:32:04,VALID,1008.37,VALID,0,VALID,104,VALID,0,VALID,24.2573,VALID,83,VALID,0,
2011-02-23, 03:33:04,VALID,1008.37,VALID,0,VALID,104,VALID,0,VALID,24.2378,VALID,83,VALID,0,
2011-02-23, 03:34:04,VALID,1008.4,VALID,0,VALID,104,VALID,0,VALID,24.2183,VALID,83,VALID,0,
2011-02-23, 03:35:04,VALID,1008.36,VALID,0,VALID,104,VALID,0,VALID,24.1988,VALID,83,VALID,0,
2011-02-23, 03:36:04,VALID,1008.34,VALID,0,VALID,104,VALID,0.105969,VALID,24.1988,VALID,83,VALID,0,
2011-02-23, 03:37:04,VALID,1008.35,VALID,0,VALID,104,VALID,0,VALID,24.1793,VALID,83,VALID,0,
2011-02-23, 03:38:04,VALID,1008.35,VALID,0,VALID,104,VALID,0,VALID,24.1812,VALID,83,VALID,0,
2011-02-23, 03:39:04,VALID,1008.39,VALID,0,VALID,104,VALID,0.105969,VALID,24.1404,VALID,83,VALID,0,
2011-02-23, 03:40:04,VALID,1008.41,VALID,0,VALID,104,VALID,0,VALID,24.1404,VALID,83,VALID,0,
2011-02-23, 03:41:04,VALID,1008.43,VALID,0,VALID,104,VALID,0.105969,VALID,24.1404,VALID,83,VALID,0,
2011-02-23, 03:42:04,VALID,1008.42,VALID,0,VALID,104,VALID,0.105969,VALID,24.1599,VALID,83,VALID,0,
2011-02-23, 03:43:04,VALID,1008.43,VALID,0,VALID,104,VALID,0.105969,VALID,24.1599,VALID,83,VALID,0,
2011-02-23, 03:44:04,VALID,1008.43,VALID,0,VALID,104,VALID,0.105969,VALID,24.1793,VALID,83,VALID,0,
2011-02-23, 03:45:04,VALID,1008.42,VALID,0,VALID,104,VALID,0.105969,VALID,24.1599,VALID,83,VALID,0,
2011-02-23, 03:46:04,VALID,1008.44,VALID,0,VALID,104,VALID,0,VALID,24.1404,VALID,83,VALID,0,
2011-02-23, 03:47:04,VALID,1008.43,VALID,0,VALID,104,VALID,0.105969,VALID,24.1404,VALID,83,VALID,0,
2011-02-23, 03:48:04,VALID,1008.47,VALID,0,VALID,104,VALID,0,VALID,24.1209,VALID,83,VALID,0,
2011-02-23, 03:49:04,VALID,1008.44,VALID,0,VALID,104,VALID,0.105969,VALID,24.1404,VALID,83,VALID,0.0710938,
2011-02-23, 03:50:04,VALID,1008.46,VALID,0,VALID,104,VALID,0.105969,VALID,24.1191,VALID,83,VALID,0.231641,
2011-02-23, 03:51:04,VALID,1008.45,VALID,0,VALID,104,VALID,0,VALID,24.1209,VALID,83,VALID,0.145313,
2011-02-23, 03:52:04,VALID,1008.43,VALID,0,VALID,104,VALID,0,VALID,24.1014,VALID,83,VALID,0.218359,
2011-02-23, 03:53:04,VALID,1008.44,VALID,0,VALID,104,VALID,0,VALID,24.1014,VALID,83,VALID,0.0515625,
2011-02-23, 03:54:04,VALID,1008.47,VALID,0,VALID,104,VALID,0.105969,VALID,24.1209,VALID,83,VALID,0,
2011-02-23, 03:55:04,VALID,1008.46,VALID,0,VALID,104,VALID,0.105969,VALID,24.0801,VALID,83,VALID,0,